"SCET";"TARGET";"ELECTRON_DENSITY";"ERROR_FLAG";"ELECTRON_DENSITY_ERROR";"FREQ_FCE";"MEASURED_VALUE";"MEASURED_ITEM";"FREQ_PLASMA";"FREQ_UPPER_HYBRID";"FREQ_R_EQUALS_ZERO";"FREQ_L_EQUALS_ZERO";"ORBIT_NUMBER";"SATURN_RADIUS";"SATURN_IAU_LONGITUDE";"SATURN_SLS4_S_LONGITUDE";"SATURN_SLS4_N_LONGITUDE";"SATURN_SLS5_S_LONGITUDE";"SATURN_SLS5_N_LONGITUDE";"SATURN_LOCAL_TIME";"SATURN_KRONOGRAPHIC_LATITUDE";"SATURN_MAGNETIC_LATITUDE";"SATURN_L";"SATURN_L_OFFSET";"SATURN_SOLAR_EQUATORIAL_X";"SATURN_SOLAR_EQUATORIAL_Y";"SATURN_SOLAR_EQUATORIAL_Z";"SATURN_ALTITUDE";"ENCELADUS_ENCOUNTER_NUMBER";"ENCELADUS_RADIUS";"ENCELADUS_COROTATIONAL_X";"ENCELADUS_COROTATIONAL_Y";"ENCELADUS_COROTATIONAL_Z";"ENCELADUS_TRUE_ANOMALY";"ENCELADUS_PERIAPSIS_TIME";"JUPITER_RADIUS";"JUPITER_SYSTEMIII_LONGITUDE";"JUPITER_MAGNETIC_LATITUDE";"JUPITER_MAGNETIC_LOCAL_TIME";"JUPITER_L";"IO_PHASE";"EARTH_RADIUS";"EARTH_MAGNETIC_LATITUDE";"EARTH_LOCAL_TIME";"EARTH_L"
"[UTC]";"[0=Saturn, 1=Enceladus, 2=Jupiter, 3=Earth]";"[cm-3]";"[0=automated, 1=manual]";"[normalized density error]";"[Hz]";"[Hz]";"[0=upper hybrid frequency, 1=plasma frequency cutoff]";"[Hz]";"[Hz]";"[Hz]";"[Hz}";"[0, A, B, C, 3, 4, ... , 292, 293]";"[Rs where 1Rs=60268km]";"[degrees]";"[degrees]";"[degrees]";"[degrees]";"[degrees]";"[hours]";"[degrees]";"[degrees where offset=2293km north]";"[Rs where 1Rs=60268km]";"[Rs where 1Rs=60268km and offset=2293km north]";"[Rs where 1Rs=60268km]";"[Rs where 1Rs=60268km]";"[Rs where 1Rs=60268km]";"[km where ellipsoid a,b=60268km and c=54364km]";"[E0, E1, E2, ... , E21, E22]";"[Renc where 1Renc=252.1km]";"[Renc where 1Renc=252.1km]";"[Renc where 1Renc=252.1km]";"[Renc where 1Renc=252.1km]";"[degrees]";"[UTC]";"[Rj where 1Rj=71492km]";"[degrees]";"[degrees using JRM09 model]";"[hours using JRM09 model]";"[Rj where 1Rj=71492km]";"[degrees]";"[Re where 1Re=6378.1366km]";"[degrees]";"[hours]";"[Re where 1Re=6378.1366km]"
2005-08-02T00:00:03.846Z;0;6.6880e+00;0;     0.130;  3822.644;  23535.773; 0;  23223.266;  23535.773;  25213.107;  21390.463; 12;   5.372; 318.797; 299.603;; 307.220; 323.421;  14.638; -13.166; -13.560;   5.665;   5.375;   4.032;   3.332;  -1.223;;;;;;;;;;;;;;;;;;
2005-08-02T00:00:19.846Z;0;6.4860e+00;0;     0.061;  3844.120;  23191.244; 0;  22870.430;  23191.244;  24873.113;  21028.994; 12;   5.369; 318.914; 299.718;; 307.335; 323.540;  14.640; -13.156; -13.550;   5.663;   5.373;   4.029;   3.333;  -1.222;;;;;;;;;;;;;;;;;;
2005-08-02T00:00:35.846Z;0;6.6160e+00;0;     0.119;  3844.120;  23416.334; 0;  23098.646;  23416.334;  25100.535;  21256.416; 12;   5.367; 319.031; 299.833;; 307.449; 323.658;  14.642; -13.145; -13.540;   5.660;   5.371;   4.025;   3.334;  -1.221;;;;;;;;;;;;;;;;;;
2005-08-02T00:00:51.846Z;0;6.3850e+00;0;     0.149;  3844.120;  23015.178; 0;  22691.875;  23015.178;  24695.189;  20851.070; 12;   5.365; 319.148; 299.948;; 307.564; 323.777;  14.644; -13.135; -13.530;   5.657;   5.369;   4.022;   3.335;  -1.219;;;;;;;;;;;;;;;;;;
2005-08-02T00:01:07.845Z;0;6.3370e+00;0;     0.095;  3844.120;  22929.373; 0;  22604.842;  22929.373;  24608.471;  20764.350; 12;   5.363; 319.264; 300.063;; 307.679; 323.895;  14.646; -13.125; -13.520;   5.655;   5.367;   4.019;   3.336;  -1.218;;;;;;;;;;;;;;;;;;
2005-08-02T00:01:23.845Z;0;6.6340e+00;0;     0.110;  3852.940;  23448.922; 0;  23130.213;  23448.922;  25136.771;  21283.832; 12;   5.361; 319.381; 300.178;; 307.794; 324.014;  14.649; -13.114; -13.510;   5.652;   5.364;   4.015;   3.338;  -1.216;;;;;;;;;;;;;;;;;;
2005-08-02T00:01:39.845Z;0;6.6980e+00;0;     0.201;  3852.940;  23558.189; 0;  23240.980;  23558.189;  25247.156;  21394.217; 12;   5.359; 319.498; 300.292;; 307.909; 324.133;  14.651; -13.104; -13.500;   5.649;   5.362;   4.012;   3.339;  -1.215;;;;;;;;;;;;;;;;;;
2005-08-02T00:01:55.845Z;0;6.7020e+00;0;     0.111;  3858.680;  23565.264; 0;  23247.199;  23565.264;  25256.461;  21397.781; 12;   5.357; 319.615; 300.407;; 308.024; 324.251;  14.653; -13.094; -13.489;   5.647;   5.360;   4.009;   3.340;  -1.214;;;;;;;;;;;;;;;;;;
2005-08-02T00:02:27.845Z;0;6.5200e+00;0;     0.083;  3867.668;  23253.596; 0;  22929.693;  23253.596;  24944.932;  21077.264; 12;   5.353; 319.848; 300.637;; 308.254; 324.488;  14.658; -13.073; -13.469;   5.641;   5.356;   4.002;   3.342;  -1.211;;;;;;;;;;;;;;;;;;
2005-08-02T00:02:43.845Z;0;6.1290e+00;0;     0.103;  3867.668;  22566.062; 0;  22232.146;  22566.062;  24249.928;  20382.260; 12;   5.351; 319.964; 300.751;; 308.369; 324.607;  14.660; -13.063; -13.459;   5.639;   5.354;   3.999;   3.343;  -1.209;;;;;;;;;;;;;;;;;;
2005-08-02T00:02:59.845Z;0;6.6180e+00;0;     0.061;  3874.080;  23424.076; 0;  23101.490;  23424.076;  25119.598;  21245.518; 12;   5.349; 320.081; 300.866;; 308.485; 324.725;  14.662; -13.052; -13.448;   5.636;   5.352;   3.995;   3.345;  -1.208;;;;;;;;;;;;;;;;;;
2005-08-02T00:03:15.845Z;0;6.6050e+00;0;     0.073;  3874.080;  23401.607; 0;  23078.707;  23401.607;  25096.895;  21222.814; 12;   5.347; 320.197; 300.981;; 308.600; 324.843;  14.664; -13.042; -13.438;   5.633;   5.350;   3.992;   3.346;  -1.206;;;;;;;;;;;;;;;;;;
2005-08-02T00:03:31.845Z;0;6.6190e+00;0;     0.069;  3884.776;  23428.354; 0;  23104.031;  23428.354;  25127.926;  21243.148; 12;   5.345; 320.314; 301.095;; 308.715; 324.962;  14.667; -13.031; -13.428;   5.631;   5.348;   3.989;   3.347;  -1.205;;;;;;;;;;;;;;;;;;
2005-08-02T00:03:47.844Z;0;6.6360e+00;0;     0.064;  3891.160;  23458.373; 0;  23133.398;  23458.373;  25160.648;  21269.488; 12;   5.342; 320.430; 301.210;; 308.830; 325.080;  14.669; -13.021; -13.418;   5.628;   5.346;   3.985;   3.348;  -1.204;;;;;;;;;;;;;;;;;;
2005-08-02T00:04:03.844Z;0;6.6390e+00;0;     0.062;  3891.160;  23463.086; 0;  23138.178;  23463.086;  25165.410;  21274.252; 12;   5.340; 320.547; 301.324;; 308.946; 325.199;  14.671; -13.010; -13.407;   5.625;   5.344;   3.982;   3.349;  -1.202;;;;;;;;;;;;;;;;;;
2005-08-02T00:04:19.844Z;0;6.6270e+00;0;     0.066;  3900.148;  23443.156; 0;  23116.453;  23443.156;  25148.635;  21248.486; 12;   5.338; 320.663; 301.439;; 309.061; 325.317;  14.673; -13.000; -13.397;   5.623;   5.342;   3.979;   3.351;  -1.201;;;;;;;;;;;;;;;;;;
2005-08-02T00:04:35.844Z;0;6.5740e+00;0;     0.087;  3900.148;  23353.332; 0;  23025.355;  23353.332;  25057.859;  21157.711; 12;   5.336; 320.780; 301.553;; 309.177; 325.435;  14.676; -12.989; -13.387;   5.620;   5.339;   3.975;   3.352;  -1.199;;;;;;;;;;;;;;;;;;
2005-08-02T00:04:51.844Z;0;6.1160e+00;0;     0.126;  3906.560;  22548.752; 0;  22207.770;  22548.752;  24246.783;  20340.223; 12;   5.334; 320.896; 301.668;; 309.292; 325.553;  14.678; -12.979; -13.376;   5.617;   5.337;   3.972;   3.353;  -1.198;;;;;;;;;;;;;;;;;;
2005-08-02T00:05:07.844Z;0;6.0770e+00;0;     0.095;  3906.560;  22479.824; 0;  22137.779;  22479.824;  24177.064;  20270.504; 12;   5.332; 321.012; 301.782;; 309.408; 325.672;  14.680; -12.968; -13.366;   5.615;   5.335;   3.969;   3.354;  -1.197;;;;;;;;;;;;;;;;;;
2005-08-02T00:05:23.844Z;0;6.0600e+00;0;     0.092;  3915.828;  22450.109; 0;  22105.965;  22450.109;  24150.416;  20234.588; 12;   5.330; 321.129; 301.897;; 309.524; 325.790;  14.682; -12.958; -13.356;   5.612;   5.333;   3.965;   3.355;  -1.195;;;;;;;;;;;;;;;;;;
2005-08-02T00:05:39.844Z;0;6.0740e+00;0;     0.093;  3915.828;  22475.725; 0;  22131.979;  22475.725;  24176.328;  20260.500; 12;   5.328; 321.245; 302.011;; 309.639; 325.908;  14.685; -12.947; -13.345;   5.610;   5.331;   3.962;   3.356;  -1.194;;;;;;;;;;;;;;;;;;
2005-08-02T00:05:55.844Z;0;5.9270e+00;0;     0.122;  3921.960;  22212.082; 0;  21863.092;  22212.082;  23911.840;  19989.881; 12;   5.326; 321.361; 302.126;; 309.755; 326.026;  14.687; -12.937; -13.335;   5.607;   5.329;   3.959;   3.358;  -1.192;;;;;;;;;;;;;;;;;;
2005-08-02T00:06:11.844Z;0;5.9850e+00;0;     0.126;  3921.960;  22315.443; 0;  21968.096;  22315.443;  24016.426;  20094.465; 12;   5.324; 321.478; 302.240;; 309.871; 326.145;  14.689; -12.926; -13.325;   5.604;   5.327;   3.955;   3.359;  -1.191;;;;;;;;;;;;;;;;;;
2005-08-02T00:06:27.843Z;0;5.9470e+00;0;     0.123;  3931.060;  22248.326; 0;  21898.283;  22248.326;  23951.846;  20020.785; 12;   5.322; 321.594; 302.354;; 309.987; 326.263;  14.691; -12.916; -13.314;   5.602;   5.325;   3.952;   3.360;  -1.189;;;;;;;;;;;;;;;;;;
2005-08-02T00:06:59.843Z;0;6.0030e+00;0;     0.123;  3937.640;  22350.773; 0;  22001.184;  22350.773;  24057.920;  20120.279; 12;   5.318; 321.826; 302.583;; 310.218; 326.499;  14.696; -12.895; -13.293;   5.596;   5.321;   3.945;   3.362;  -1.187;;;;;;;;;;;;;;;;;;
2005-08-02T00:07:15.843Z;0;6.1230e+00;0;     0.098;  3937.640;  22566.764; 0;  22220.572;  22566.764;  24276.443;  20338.803; 12;   5.315; 321.943; 302.697;; 310.334; 326.617;  14.698; -12.884; -13.283;   5.594;   5.319;   3.942;   3.364;  -1.185;;;;;;;;;;;;;;;;;;
2005-08-02T00:07:31.843Z;0;5.9860e+00;0;     0.122;  3946.432;  22321.834; 0;  21970.205;  22321.834;  24031.854;  20085.422; 12;   5.313; 322.059; 302.812;; 310.450; 326.735;  14.700; -12.873; -13.272;   5.591;   5.317;   3.938;   3.365;  -1.184;;;;;;;;;;;;;;;;;;
2005-08-02T00:07:47.843Z;0;6.1500e+00;0;     0.093;  3952.760;  22617.311; 0;  22269.227;  22617.311;  24333.135;  20380.375; 12;   5.311; 322.175; 302.926;; 310.566; 326.853;  14.703; -12.863; -13.262;   5.588;   5.315;   3.935;   3.366;  -1.182;;;;;;;;;;;;;;;;;;
2005-08-02T00:08:03.843Z;0;6.0460e+00;0;     0.122;  3952.760;  22430.955; 0;  22079.934;  22430.955;  24144.590;  20191.830; 12;   5.309; 322.291; 303.040;; 310.683; 326.971;  14.705; -12.852; -13.252;   5.586;   5.312;   3.932;   3.367;  -1.181;;;;;;;;;;;;;;;;;;
2005-08-02T00:08:19.843Z;0;6.1760e+00;0;     0.092;  3962.476;  22666.020; 0;  22316.973;  22666.020;  24385.980;  20423.506; 12;   5.307; 322.407; 303.154;; 310.799; 327.089;  14.707; -12.841; -13.241;   5.583;   5.310;   3.928;   3.368;  -1.179;;;;;;;;;;;;;;;;;;
2005-08-02T00:08:35.843Z;0;6.3510e+00;0;     0.144;  3962.476;  22974.117; 0;  22629.822;  22974.117;  24697.623;  20735.146; 12;   5.305; 322.523; 303.268;; 310.915; 327.207;  14.709; -12.831; -13.231;   5.580;   5.308;   3.925;   3.369;  -1.178;;;;;;;;;;;;;;;;;;
2005-08-02T00:08:51.843Z;0;6.1930e+00;0;     0.093;  3968.160;  22696.355; 0;  22346.773;  22696.355;  24418.760;  20450.600; 12;   5.303; 322.639; 303.383;; 311.031; 327.325;  14.712; -12.820; -13.220;   5.578;   5.306;   3.922;   3.371;  -1.177;;;;;;;;;;;;;;;;;;
2005-08-02T00:09:07.842Z;0;6.2120e+00;0;     0.092;  3968.160;  22730.254; 0;  22381.201;  22730.254;  24453.053;  20484.893; 12;   5.301; 322.755; 303.497;; 311.148; 327.443;  14.714; -12.809; -13.210;   5.575;   5.304;   3.918;   3.372;  -1.175;;;;;;;;;;;;;;;;;;
2005-08-02T00:09:23.842Z;0;6.1880e+00;0;     0.094;  3977.428;  22690.174; 0;  22338.846;  22690.174;  24415.908;  20438.480; 12;   5.299; 322.871; 303.611;; 311.264; 327.561;  14.716; -12.799; -13.199;   5.572;   5.302;   3.915;   3.373;  -1.174;;;;;;;;;;;;;;;;;;
2005-08-02T00:09:39.842Z;0;6.4530e+00;0;     0.129;  3977.428;  23154.977; 0;  22810.809;  23154.977;  24886.051;  20908.621; 12;   5.297; 322.987; 303.725;; 311.380; 327.679;  14.719; -12.788; -13.188;   5.570;   5.300;   3.911;   3.374;  -1.172;;;;;;;;;;;;;;;;;;
2005-08-02T00:09:55.842Z;0;6.1090e+00;0;     0.126;  3983.840;  22549.520; 0;  22194.816;  22549.520;  24275.941;  20292.102; 12;   5.295; 323.103; 303.839;; 311.497; 327.796;  14.721; -12.777; -13.178;   5.567;   5.298;   3.908;   3.375;  -1.171;;;;;;;;;;;;;;;;;;
2005-08-02T00:10:11.842Z;0;6.1470e+00;0;     0.133;  3983.840;  22618.402; 0;  22264.797;  22618.402;  24345.643;  20361.803; 12;   5.293; 323.219; 303.953;; 311.611; 327.913;  14.723; -12.766; -13.167;   5.564;   5.296;   3.905;   3.376;  -1.170;;;;;;;;;;;;;;;;;;
2005-08-02T00:10:27.842Z;0;6.4170e+00;0;     0.123;  3993.136;  23096.217; 0;  22748.408;  23096.217;  24832.426;  20839.289; 12;   5.291; 323.335; 304.067;; 311.725; 328.030;  14.725; -12.756; -13.157;   5.562;   5.294;   3.901;   3.377;  -1.168;;;;;;;;;;;;;;;;;;
2005-08-02T00:10:43.842Z;0;6.2690e+00;0;     0.088;  3993.136;  22835.984; 0;  22484.150;  22835.984;  24569.191;  20576.055; 12;   5.289; 323.451; 304.181;; 311.839; 328.146;  14.728; -12.745; -13.146;   5.559;   5.292;   3.898;   3.379;  -1.167;;;;;;;;;;;;;;;;;;
2005-08-02T00:10:59.842Z;0;6.2240e+00;0;     0.134;  3999.520;  22756.656; 0;  22402.438;  22756.656;  24491.275;  20491.756; 12;   5.287; 323.567; 304.295;; 311.952; 328.262;  14.730; -12.734; -13.135;   5.557;   5.290;   3.895;   3.380;  -1.165;;;;;;;;;;;;;;;;;;
2005-08-02T00:11:15.842Z;0;6.2100e+00;0;     0.131;  3999.520;  22733.172; 0;  22378.582;  22733.172;  24467.514;  20467.994; 12;   5.284; 323.683; 304.409;; 312.065; 328.378;  14.732; -12.723; -13.125;   5.554;   5.288;   3.891;   3.381;  -1.164;;;;;;;;;;;;;;;;;;
2005-08-02T00:11:31.841Z;0;6.4850e+00;0;     0.117;  4008.648;  23217.639; 0;  22868.963;  23217.639;  24960.953;  20952.305; 12;   5.282; 323.798; 304.523;; 312.179; 328.494;  14.735; -12.712; -13.114;   5.551;   5.286;   3.888;   3.382;  -1.162;;;;;;;;;;;;;;;;;;
2005-08-02T00:11:47.841Z;0;6.4880e+00;0;     0.125;  4015.200;  23223.564; 0;  22873.830;  23223.564;  24969.363;  20954.164; 12;   5.280; 323.914; 304.637;; 312.292; 328.610;  14.737; -12.702; -13.104;   5.549;   5.283;   3.884;   3.383;  -1.161;;;;;;;;;;;;;;;;;;
2005-08-02T00:12:03.841Z;0;6.5220e+00;0;     0.136;  4015.200;  23282.555; 0;  22933.721;  23282.555;  25029.023;  21013.824; 12;   5.278; 324.030; 304.750;; 312.405; 328.726;  14.739; -12.691; -13.093;   5.546;   5.281;   3.881;   3.384;  -1.160;;;;;;;;;;;;;;;;;;
2005-08-02T00:12:19.841Z;0;6.5100e+00;0;     0.121;  4024.524;  23262.303; 0;  22911.523;  23262.303;  25011.982;  20987.459; 12;   5.276; 324.146; 304.864;; 312.518; 328.841;  14.741; -12.680; -13.082;   5.543;   5.279;   3.878;   3.386;  -1.158;;;;;;;;;;;;;;;;;;
2005-08-02T00:12:35.841Z;0;6.4910e+00;0;     0.120;  4024.524;  23230.320; 0;  22879.051;  23230.320;  24979.635;  20955.109; 12;   5.274; 324.261; 304.978;; 312.631; 328.957;  14.744; -12.669; -13.072;   5.541;   5.277;   3.874;   3.387;  -1.157;;;;;;;;;;;;;;;;;;
2005-08-02T00:12:51.841Z;0;6.4960e+00;0;     0.107;  4030.880;  23240.535; 0;  22888.305;  23240.535;  24992.309;  20961.428; 12;   5.272; 324.377; 305.092;; 312.744; 329.073;  14.746; -12.658; -13.061;   5.538;   5.275;   3.871;   3.388;  -1.155;;;;;;;;;;;;;;;;;;
2005-08-02T00:13:07.841Z;0;6.5180e+00;0;     0.115;  4030.880;  23278.014; 0;  22926.359;  23278.014;  25030.217;  20999.336; 12;   5.270; 324.493; 305.206;; 312.857; 329.188;  14.748; -12.647; -13.050;   5.535;   5.273;   3.868;   3.389;  -1.154;;;;;;;;;;;;;;;;;;
2005-08-02T00:13:23.841Z;0;6.5360e+00;0;     0.119;  4040.288;  23310.891; 0;  22958.086;  23310.891;  25066.938;  21026.648; 12;   5.268; 324.608; 305.319;; 312.969; 329.303;  14.751; -12.636; -13.039;   5.533;   5.271;   3.864;   3.390;  -1.152;;;;;;;;;;;;;;;;;;
2005-08-02T00:13:39.841Z;0;6.4900e+00;0;     0.119;  4040.288;  23230.361; 0;  22876.314;  23230.361;  24985.482;  20945.193; 12;   5.266; 324.724; 305.433;; 313.082; 329.418;  14.753; -12.625; -13.029;   5.530;   5.269;   3.861;   3.391;  -1.151;;;;;;;;;;;;;;;;;;
2005-08-02T00:13:55.841Z;0;6.5110e+00;0;     0.118;  4046.560;  23268.568; 0;  22914.006;  23268.568;  25026.438;  20979.879; 12;   5.264; 324.839; 305.547;; 313.194; 329.534;  14.755; -12.614; -13.018;   5.527;   5.267;   3.857;   3.392;  -1.150;;;;;;;;;;;;;;;;;;
2005-08-02T00:14:11.840Z;0;6.5380e+00;0;     0.113;  4046.560;  23315.695; 0;  22961.859;  23315.695;  25074.107;  21027.547; 12;   5.262; 324.955; 305.660;; 313.307; 329.649;  14.758; -12.604; -13.007;   5.525;   5.265;   3.854;   3.394;  -1.148;;;;;;;;;;;;;;;;;;
2005-08-02T00:14:27.840Z;0;6.5960e+00;0;     0.128;  4056.500;  23416.566; 0;  23062.531;  23416.566;  25179.799;  21123.299; 12;   5.260; 325.071; 305.774;; 313.419; 329.764;  14.760; -12.593; -12.996;   5.522;   5.263;   3.851;   3.395;  -1.147;;;;;;;;;;;;;;;;;;
2005-08-02T00:14:43.840Z;0;6.5270e+00;0;     0.134;  4056.500;  23297.930; 0;  22942.064;  23297.930;  25059.797;  21003.297; 12;   5.258; 325.186; 305.888;; 313.531; 329.878;  14.762; -12.582; -12.986;   5.520;   5.261;   3.847;   3.396;  -1.145;;;;;;;;;;;;;;;;;;
2005-08-02T00:14:59.840Z;0;6.5320e+00;0;     0.115;  4062.800;  23308.420; 0;  22951.604;  23308.420;  25072.725;  21009.926; 12;   5.256; 325.302; 306.001;; 313.643; 329.993;  14.764; -12.571; -12.975;   5.517;   5.259;   3.844;   3.397;  -1.144;;;;;;;;;;;;;;;;;;
2005-08-02T00:15:15.840Z;0;6.5670e+00;0;     0.122;  4062.800;  23367.447; 0;  23011.547;  23367.447;  25132.436;  21069.635; 12;   5.254; 325.417; 306.115;; 313.755; 330.108;  14.767; -12.560; -12.964;   5.514;   5.257;   3.840;   3.398;  -1.142;;;;;;;;;;;;;;;;;;
2005-08-02T00:15:31.840Z;0;6.5480e+00;0;     0.123;  4072.488;  23337.787; 0;  22979.711;  23337.787;  25105.996;  21033.508; 12;   5.252; 325.532; 306.228;; 313.867; 330.222;  14.769; -12.549; -12.953;   5.512;   5.255;   3.837;   3.399;  -1.141;;;;;;;;;;;;;;;;;;
2005-08-02T00:15:47.840Z;0;6.5290e+00;0;     0.116;  4078.760;  23304.605; 0;  22944.898;  23304.605;  25074.732;  20995.971; 12;   5.249; 325.648; 306.342;; 313.979; 330.337;  14.771; -12.538; -12.942;   5.509;   5.253;   3.834;   3.400;  -1.140;;;;;;;;;;;;;;;;;;
2005-08-02T00:16:03.840Z;0;6.5140e+00;0;     0.121;  4078.760;  23280.043; 0;  22919.951;  23280.043;  25049.881;  20971.121; 12;   5.247; 325.763; 306.455;; 314.091; 330.451;  14.774; -12.527; -12.931;   5.506;   5.250;   3.830;   3.402;  -1.138;;;;;;;;;;;;;;;;;;
2005-08-02T00:16:19.840Z;0;6.5280e+00;0;     0.116;  4088.868;  23305.494; 0;  22944.002;  23305.494;  25079.340;  20990.473; 12;   5.245; 325.879; 306.569;; 314.202; 330.565;  14.776; -12.515; -12.920;   5.504;   5.248;   3.827;   3.403;  -1.137;;;;;;;;;;;;;;;;;;
2005-08-02T00:16:51.839Z;0;6.3050e+00;0;     0.152;  4095.280;  22917.777; 0;  22548.906;  22917.777;  24689.328;  20594.049; 12;   5.241; 326.109; 306.796;; 314.425; 330.794;  14.781; -12.493; -12.899;   5.499;   5.244;   3.820;   3.405;  -1.134;;;;;;;;;;;;;;;;;;
2005-08-02T00:17:07.839Z;0;6.5520e+00;0;     0.121;  4095.280;  23347.129; 0;  22985.150;  23347.129;  25123.816;  21028.537; 12;   5.239; 326.225; 306.909;; 314.536; 330.908;  14.783; -12.482; -12.888;   5.496;   5.242;   3.817;   3.406;  -1.132;;;;;;;;;;;;;;;;;;
2005-08-02T00:17:23.839Z;0;6.5100e+00;0;     0.132;  4105.080;  23276.445; 0;  22911.596;  23276.445;  25055.891;  20950.811; 12;   5.237; 326.340; 307.023;; 314.648; 331.022;  14.785; -12.471; -12.877;   5.493;   5.240;   3.813;   3.407;  -1.131;;;;;;;;;;;;;;;;;;
2005-08-02T00:17:39.839Z;0;6.4860e+00;0;     0.120;  4105.080;  23236.225; 0;  22870.734;  23236.225;  25015.191;  20910.111; 12;   5.235; 326.455; 307.136;; 314.759; 331.135;  14.788; -12.460; -12.866;   5.491;   5.238;   3.810;   3.408;  -1.129;;;;;;;;;;;;;;;;;;
2005-08-02T00:17:55.839Z;0;6.5400e+00;0;     0.128;  4111.240;  23330.768; 0;  22965.680;  23330.768;  25113.113;  21001.873; 12;   5.233; 326.570; 307.249;; 314.870; 331.249;  14.790; -12.449; -12.855;   5.488;   5.236;   3.806;   3.410;  -1.128;;;;;;;;;;;;;;;;;;
2005-08-02T00:18:11.839Z;0;6.5110e+00;0;     0.117;  4111.240;  23280.504; 0;  22914.615;  23280.504;  25062.252;  20951.012; 12;   5.231; 326.686; 307.363;; 314.981; 331.363;  14.792; -12.438; -12.844;   5.485;   5.234;   3.803;   3.411;  -1.127;;;;;;;;;;;;;;;;;;
2005-08-02T00:18:27.839Z;0;6.5300e+00;0;     0.113;  4121.208;  23315.287; 0;  22948.164;  23315.287;  25101.098;  20979.889; 12;   5.229; 326.801; 307.476;; 315.092; 331.476;  14.795; -12.427; -12.833;   5.483;   5.232;   3.800;   3.412;  -1.125;;;;;;;;;;;;;;;;;;
2005-08-02T00:18:43.839Z;0;6.5100e+00;0;     0.118;  4121.208;  23279.279; 0;  22911.580;  23279.279;  25064.660;  20943.451; 12;   5.227; 326.916; 307.589;; 315.202; 331.590;  14.797; -12.415; -12.822;   5.480;   5.230;   3.796;   3.413;  -1.124;;;;;;;;;;;;;;;;;;
2005-08-02T00:18:59.839Z;0;6.5380e+00;0;     0.115;  4127.760;  23329.939; 0;  22961.875;  23329.939;  25118.322;  20990.562; 12;   5.225; 327.031; 307.702;; 315.313; 331.703;  14.799; -12.404; -12.811;   5.478;   5.228;   3.793;   3.414;  -1.122;;;;;;;;;;;;;;;;;;
2005-08-02T00:19:15.839Z;0;6.5340e+00;0;     0.124;  4127.760;  23322.508; 0;  22954.324;  23322.508;  25110.801;  20983.041; 12;   5.223; 327.146; 307.816;; 315.424; 331.816;  14.802; -12.393; -12.800;   5.475;   5.226;   3.789;   3.415;  -1.121;;;;;;;;;;;;;;;;;;
2005-08-02T00:19:31.838Z;0;6.5350e+00;0;     0.120;  4137.672;  23325.861; 0;  22955.947;  23325.861;  25117.818;  20980.146; 12;   5.221; 327.261; 307.929;; 315.534; 331.929;  14.804; -12.382; -12.789;   5.472;   5.224;   3.786;   3.416;  -1.119;;;;;;;;;;;;;;;;;;
2005-08-02T00:19:47.838Z;0;6.5870e+00;0;     0.123;  4144.000;  23416.547; 0;  23046.951;  23416.547;  25211.902;  21067.902; 12;   5.219; 327.376; 308.042;; 315.644; 332.042;  14.806; -12.371; -12.778;   5.470;   5.222;   3.782;   3.417;  -1.118;;;;;;;;;;;;;;;;;;
2005-08-02T00:20:03.838Z;0;6.5490e+00;0;     0.116;  4144.000;  23350.768; 0;  22980.113;  23350.768;  25145.336;  21001.336; 12;   5.217; 327.491; 308.155;; 315.755; 332.156;  14.809; -12.359; -12.767;   5.467;   5.220;   3.779;   3.419;  -1.117;;;;;;;;;;;;;;;;;;
2005-08-02T00:20:19.838Z;0;6.5250e+00;0;     0.117;  4154.220;  23312.285; 0;  22939.160;  23312.285;  25110.119;  20955.898; 12;   5.215; 327.606; 308.268;; 315.868; 332.272;  14.811; -12.348; -12.756;   5.464;   5.218;   3.776;   3.420;  -1.115;;;;;;;;;;;;;;;;;;
2005-08-02T00:20:35.838Z;0;6.5530e+00;0;     0.124;  4154.220;  23359.643; 0;  22987.287;  23359.643;  25158.049;  21003.828; 12;   5.213; 327.721; 308.381;; 315.981; 332.387;  14.813; -12.337; -12.745;   5.462;   5.215;   3.772;   3.421;  -1.114;;;;;;;;;;;;;;;;;;
2005-08-02T00:20:51.838Z;0;6.6000e+00;0;     0.117;  4160.520;  23442.797; 0;  23070.648;  23442.797;  25244.506;  21083.986; 12;   5.210; 327.836; 308.494;; 316.094; 332.503;  14.816; -12.326; -12.734;   5.459;   5.213;   3.769;   3.422;  -1.112;;;;;;;;;;;;;;;;;;
2005-08-02T00:21:07.838Z;0;6.5750e+00;0;     0.122;  4160.520;  23398.912; 0;  23026.055;  23398.912;  25200.092;  21039.572; 12;   5.208; 327.951; 308.607;; 316.207; 332.619;  14.818; -12.314; -12.722;   5.457;   5.211;   3.765;   3.423;  -1.111;;;;;;;;;;;;;;;;;;
2005-08-02T00:21:23.838Z;0;6.6000e+00;0;     0.124;  4170.824;  23443.807; 0;  23069.814;  23443.807;  25249.289;  21078.467; 12;   5.206; 328.066; 308.720;; 316.320; 332.734;  14.820; -12.303; -12.711;   5.454;   5.209;   3.762;   3.424;  -1.109;;;;;;;;;;;;;;;;;;
2005-08-02T00:21:39.838Z;0;6.7320e+00;0;     0.100;  4170.824;  23669.537; 0;  23299.168;  23669.537;  25477.723;  21306.898; 12;   5.204; 328.181; 308.833;; 316.434; 332.850;  14.823; -12.292; -12.700;   5.451;   5.207;   3.759;   3.425;  -1.108;;;;;;;;;;;;;;;;;;
2005-08-02T00:21:55.837Z;0;6.8260e+00;0;     0.173;  4177.040;  23830.395; 0;  23461.459;  23830.395;  25642.754;  21465.715; 12;   5.202; 328.296; 308.946;; 316.547; 332.966;  14.825; -12.280; -12.689;   5.449;   5.205;   3.755;   3.426;  -1.106;;;;;;;;;;;;;;;;;;
2005-08-02T00:22:11.837Z;0;6.7800e+00;0;     0.101;  4177.040;  23751.994; 0;  23381.820;  23751.994;  25563.432;  21386.393; 12;   5.200; 328.411; 309.059;; 316.660; 333.082;  14.827; -12.269; -12.678;   5.446;   5.203;   3.752;   3.427;  -1.105;;;;;;;;;;;;;;;;;;
2005-08-02T00:22:27.837Z;0;6.6990e+00;0;     0.134;  4187.428;  23616.982; 0;  23242.791;  23616.982;  25430.615;  21243.188; 12;   5.198; 328.525; 309.172;; 316.773; 333.198;  14.830; -12.258; -12.667;   5.444;   5.201;   3.748;   3.429;  -1.104;;;;;;;;;;;;;;;;;;
2005-08-02T00:24:51.836Z;0;6.8360e+00;0;     0.150;  4227.440;  23857.021; 0;  23479.484;  23857.021;  25688.156;  21460.717; 12;   5.180; 329.558; 310.187;; 317.795; 334.244;  14.851; -12.155; -12.566;   5.420;   5.183;   3.717;   3.439;  -1.091;;;;;;;;;;;;;;;;;;